When you browse on this site, cookies collect data to enhance your experience and personalize the content and advertising you see.
Visit our Privacy Policy to learn more. By continuing to use the site, you agree to this use of cookies and data.
EN

Hourly Weather Ali-Yurt

Today, 15 August, Saturday

Time Temperature Precipitation Wind Pressure Humidity
00:00 +16°C° 1 mm 2 mps 700 mmHg 91%
01:00 +16°C° 0.4 mm 1 mps 700 mmHg 91%
02:00 +16°C° 0.4 mm 1 mps 700 mmHg 91%
03:00 +15°C° 0.4 mm 1 mps 700 mmHg 91%
04:00 +15°C° 0.1 mm 1 mps 700 mmHg 89%
05:00 +15°C° 0.1 mm 1 mps 700 mmHg 88%
06:00 +15°C° 0.1 mm 1 mps 701 mmHg 86%
07:00 +16°C° 0 mm 1 mps 701 mmHg 80%
08:00 +18°C° 0 mm 1 mps 701 mmHg 73%
09:00 +19°C° 0 mm 1 mps 701 mmHg 67%
10:00 +21°C° 0 mm 1 mps 701 mmHg 60%
11:00 +23°C° 0 mm 1 mps 701 mmHg 53%
12:00 +24°C° 0 mm 1 mps 701 mmHg 46%
13:00 +24°C° 0 mm 1 mps 701 mmHg 47%
14:00 +24°C° 0 mm 2 mps 701 mmHg 48%
15:00 +23°C° 0 mm 2 mps 700 mmHg 49%
16:00 +23°C° 0 mm 2 mps 701 mmHg 53%
17:00 +21°C° 0 mm 2 mps 701 mmHg 56%
18:00 +21°C° 0 mm 2 mps 701 mmHg 60%
19:00 +21°C° 0 mm 1 mps 701 mmHg 61%
20:00 +20°C° 0 mm 1 mps 701 mmHg 62%
21:00 +19°C° 0 mm 1 mps 701 mmHg 62%
22:00 +19°C° 0 mm 1 mps 701 mmHg 62%
23:00 +19°C° 0 mm 1 mps 701 mmHg 61%

Tomorrow, 16 August, Sunday

Time Temperature Precipitation Wind Pressure Humidity
00:00 +16°C° 0 mm 0 mps 701 mmHg 60%
01:00 +18°C° 0 mm 1 mps 701 mmHg 62%
02:00 +16°C° 0 mm 1 mps 701 mmHg 64%
03:00 +15°C° 0 mm 1 mps 700 mmHg 66%
04:00 +15°C° 0 mm 1 mps 700 mmHg 66%
05:00 +16°C° 0 mm 1 mps 700 mmHg 67%
06:00 +16°C° 0 mm 1 mps 700 mmHg 68%
07:00 +18°C° 0 mm 1 mps 701 mmHg 62%
08:00 +20°C° 0 mm 1 mps 701 mmHg 56%
09:00 +21°C° 0 mm 2 mps 701 mmHg 50%
10:00 +21°C° 0 mm 2 mps 701 mmHg 48%
11:00 +23°C° 0 mm 2 mps 701 mmHg 47%
12:00 +24°C° 0 mm 3 mps 701 mmHg 45%
13:00 +24°C° 0 mm 3 mps 701 mmHg 47%
14:00 +22°C° 0 mm 3 mps 701 mmHg 50%
15:00 +22°C° 0 mm 3 mps 700 mmHg 52%
16:00 +21°C° 0 mm 3 mps 700 mmHg 55%
17:00 +20°C° 0 mm 3 mps 700 mmHg 58%
18:00 +19°C° 0 mm 3 mps 700 mmHg 62%
19:00 +19°C° 0 mm 2 mps 700 mmHg 65%
20:00 +18°C° 0 mm 2 mps 700 mmHg 68%
21:00 +19°C° 0 mm 1 mps 701 mmHg 72%
22:00 +18°C° 0 mm 1 mps 701 mmHg 75%
23:00 +18°C° 0 mm 1 mps 701 mmHg 78%

Day after tomorrow, 17 August, Monday

Time Temperature Precipitation Wind Pressure Humidity
00:00 +16°C° 0 mm 0 mps 701 mmHg 81%
01:00 +15°C° 0.2 mm 0 mps 701 mmHg 83%
02:00 +15°C° 0.2 mm 0 mps 700 mmHg 84%
03:00 +15°C° 0.2 mm 0 mps 700 mmHg 86%
04:00 +15°C° 0.1 mm 0 mps 701 mmHg 85%
05:00 +14°C° 0.1 mm 0 mps 701 mmHg 84%
06:00 +14°C° 0.1 mm 0 mps 701 mmHg 83%
07:00 +14°C° 0.3 mm 0 mps 701 mmHg 84%
08:00 +15°C° 0.3 mm 1 mps 701 mmHg 85%
09:00 +15°C° 0.3 mm 1 mps 701 mmHg 85%
10:00 +16°C° 0.2 mm 1 mps 701 mmHg 82%
11:00 +18°C° 0.2 mm 1 mps 702 mmHg 78%
12:00 +19°C° 0.2 mm 1 mps 702 mmHg 74%
13:00 +19°C° 0.1 mm 2 mps 702 mmHg 69%
14:00 +20°C° 0.1 mm 2 mps 702 mmHg 65%
15:00 +21°C° 0.1 mm 2 mps 702 mmHg 61%
16:00 +20°C° 0 mm 2 mps 702 mmHg 62%
17:00 +20°C° 0 mm 2 mps 702 mmHg 63%
18:00 +20°C° 0 mm 1 mps 702 mmHg 65%
19:00 +19°C° 0 mm 1 mps 702 mmHg 70%
20:00 +16°C° 0 mm 1 mps 702 mmHg 75%
21:00 +15°C° 0 mm 1 mps 702 mmHg 79%
22:00 +14°C° 0 mm 1 mps 702 mmHg 79%
23:00 +14°C° 0 mm 1 mps 702 mmHg 79%

18 August, Tuesday

Time Temperature Precipitation Wind Pressure Humidity
00:00 +14°C° 0 mm 1 mps 702 mmHg 79%
01:00 +14°C° 0 mm 1 mps 702 mmHg 77%
02:00 +13°C° 0 mm 1 mps 702 mmHg 75%
03:00 +13°C° 0 mm 1 mps 701 mmHg 74%
04:00 +13°C° 0 mm 1 mps 701 mmHg 73%
05:00 +13°C° 0 mm 1 mps 701 mmHg 72%
06:00 +14°C° 0 mm 1 mps 701 mmHg 71%
07:00 +16°C° 0 mm 1 mps 701 mmHg 63%
08:00 +19°C° 0 mm 2 mps 702 mmHg 55%
09:00 +23°C° 0 mm 2 mps 702 mmHg 46%
10:00 +24°C° 0 mm 3 mps 702 mmHg 43%
11:00 +25°C° 0 mm 3 mps 702 mmHg 40%
12:00 +26°C° 0 mm 4 mps 702 mmHg 36%
13:00 +26°C° 0 mm 4 mps 701 mmHg 36%
14:00 +27°C° 0 mm 3 mps 701 mmHg 35%
15:00 +27°C° 0 mm 3 mps 701 mmHg 35%
16:00 +26°C° 0 mm 3 mps 701 mmHg 40%
17:00 +25°C° 0 mm 2 mps 701 mmHg 44%
18:00 +24°C° 0 mm 1 mps 701 mmHg 49%
19:00 +21°C° 0 mm 2 mps 700 mmHg 55%
20:00 +19°C° 0 mm 2 mps 700 mmHg 62%
21:00 +17°C° 0 mm 2 mps 700 mmHg 68%
22:00 +17°C° 0 mm 2 mps 700 mmHg 70%
23:00 +16°C° 0 mm 2 mps 700 mmHg 71%

19 August, Wednesday

Time Temperature Precipitation Wind Pressure Humidity
00:00 +16°C° 0 mm 1 mps 700 mmHg 72%
01:00 +16°C° 0 mm 1 mps 700 mmHg 70%
02:00 +15°C° 0 mm 1 mps 699 mmHg 68%
03:00 +15°C° 0 mm 2 mps 699 mmHg 66%
04:00 +15°C° 0 mm 1 mps 699 mmHg 66%
05:00 +15°C° 0 mm 1 mps 699 mmHg 66%
06:00 +15°C° 0 mm 1 mps 699 mmHg 66%
07:00 +19°C° 0 mm 1 mps 699 mmHg 59%
08:00 +21°C° 0 mm 1 mps 700 mmHg 52%
09:00 +24°C° 0 mm 1 mps 700 mmHg 45%
10:00 +25°C° 0 mm 1 mps 700 mmHg 41%
11:00 +26°C° 0 mm 2 mps 700 mmHg 37%
12:00 +27°C° 0 mm 2 mps 700 mmHg 34%
13:00 +28°C° 0 mm 2 mps 700 mmHg 34%
14:00 +28°C° 0 mm 2 mps 700 mmHg 33%
15:00 +28°C° 0 mm 2 mps 700 mmHg 33%
16:00 +27°C° 0 mm 2 mps 700 mmHg 38%
17:00 +26°C° 0 mm 2 mps 700 mmHg 44%
18:00 +25°C° 0 mm 1 mps 700 mmHg 49%
19:00 +23°C° 0 mm 1 mps 700 mmHg 54%
20:00 +21°C° 0 mm 1 mps 700 mmHg 59%
21:00 +19°C° 0 mm 1 mps 700 mmHg 63%
22:00 +19°C° 0 mm 1 mps 700 mmHg 64%
23:00 +18°C° 0 mm 1 mps 700 mmHg 65%

20 August, Thursday

Time Temperature Precipitation Wind Pressure Humidity
00:00 +18°C° 0 mm 1 mps 700 mmHg 66%
01:00 +18°C° 0 mm 1 mps 700 mmHg 66%
02:00 +18°C° 0 mm 1 mps 699 mmHg 66%
03:00 +16°C° 0 mm 1 mps 699 mmHg 66%
04:00 +18°C° 0 mm 1 mps 699 mmHg 66%
05:00 +18°C° 0 mm 1 mps 700 mmHg 66%
06:00 +18°C° 0 mm 1 mps 700 mmHg 66%
07:00 +20°C° 0 mm 1 mps 700 mmHg 60%
08:00 +23°C° 0 mm 1 mps 700 mmHg 54%
09:00 +25°C° 0 mm 2 mps 700 mmHg 48%
10:00 +26°C° 0 mm 2 mps 700 mmHg 45%
11:00 +27°C° 0 mm 3 mps 700 mmHg 41%
12:00 +29°C° 0 mm 3 mps 700 mmHg 38%
13:00 +29°C° 0 mm 3 mps 700 mmHg 38%
14:00 +30°C° 0 mm 4 mps 700 mmHg 38%
15:00 +30°C° 0 mm 4 mps 700 mmHg 38%
16:00 +29°C° 0 mm 4 mps 699 mmHg 42%
17:00 +28°C° 0 mm 4 mps 699 mmHg 46%
18:00 +26°C° 0 mm 3 mps 699 mmHg 51%
19:00 +24°C° 0 mm 3 mps 699 mmHg 55%
20:00 +21°C° 0 mm 3 mps 699 mmHg 60%
21:00 +19°C° 0 mm 2 mps 699 mmHg 64%
22:00 +19°C° 0 mm 2 mps 699 mmHg 65%
23:00 +18°C° 0 mm 2 mps 698 mmHg 66%
Show more